Fargo, ND

1:40 AM CST on December 14, 2019 (GMT -0600)
Hector International

Weather History for KFAR - October, 2019

Change the Weather History Date:

Saturday, October 5, 2019

  Actual Average Record
Temperature  
Mean Temperature 48 °F 50 °F  
Max Temperature 51 °F 62 °F 93 °F (1963)
Min Temperature 44 °F 39 °F 18 °F (1885)
Degree Days  
Heating Degree Days 18 15  
Month to date heating degree days 101 69  
Since 1 July heating degree days 316 339  
Cooling Degree Days 0 0  
Month to date cooling degree days 0 0  
Year to date cooling degree days 527 548  
Moisture  
Dew Point 47 °F    
Average Humidity 95    
Maximum Humidity 100    
Minimum Humidity 80    
Precipitation  
Precipitation 0.96 in 0.09 in 2.39 in (1884)
Month to date precipitation 1.47 0.42  
Year to date precipitation 26.17 19.02  
Snow  
Snow 0.00 in 0.00 in T in (2012)
Month to date snowfall 0.0 0.0  
Since 1 July snowfall 0.0 0.0  
Since 1 September snowfall 0.0 0.0  
Snow Depth 0.00 in    
Sea Level Pressure  
Sea Level Pressure 29.71 in    
Wind  
Wind Speed 12 mph ()    
Max Wind Speed 24 mph    
Max Gust Speed 30 mph    
Visibility 5.6 miles    
Events Rain , Thunderstorm    
T = Trace of Precipitation, MM = Missing Value Source: Averaged Metar Reports

Daily Weather History Graph

Daily Weather History Graph

Search for Another Location

Airport or City:

Astronomy

Oct. 05, 2019 Rise Set
Actual Time 7:31 AM CDT 6:59 PM CDT
Civil Twilight 7:00 AM CDT 7:29 PM CDT
Nautical Twilight 6:25 AM CDT 8:04 PM CDT
Astronomical Twilight 5:49 AM CDT 8:40 PM CDT
Moon 3:19 PM CDT (10/5) No Moon Set
Length of Visible Light 12h 28m
Length of Day
11h 28m
Waxing Crescent, 50% of the Moon is Illuminated
Oct 5
Waxing Crescent
Oct 13
Full
Oct 21
Last Quarter
Oct 27
New
Nov 4
First Quarter

Hourly Weather History & Observations

Time (CDT) Temp. Windchill Dew Point Humidity Pressure Visibility Wind Dir Wind Speed Gust Speed Precip Events Conditions
12:45 AM 45.0 °F 38.9 °F 42.1 °F 90% 30.02 in 4.0 mi SE 12.7 mph - 0.04 in Rain , Thunderstorm Light Rain
12:53 AM 44.1 °F 38.1 °F 43.0 °F 96% 30.03 in 4.0 mi ESE 11.5 mph - 0.05 in Rain , Thunderstorm Thunderstorms and Rain
1:07 AM 44.1 °F 37.7 °F 43.0 °F 96% 30.01 in 3.0 mi SE 12.7 mph - 0.04 in Rain , Thunderstorm Rain
1:18 AM 44.1 °F 38.6 °F 43.0 °F 96% 29.99 in 5.0 mi ESE 10.4 mph 21.9 mph 0.05 in Rain Light Rain
1:53 AM 45.0 °F 38.5 °F 44.1 °F 97% 29.99 in 3.0 mi ESE 13.8 mph 20.7 mph 0.09 in Rain Light Rain
2:44 AM 45.0 °F 39.3 °F 44.1 °F 97% 29.95 in 4.0 mi ESE 11.5 mph - 0.07 in Rain , Thunderstorm Rain
2:53 AM 45.0 °F 38.5 °F 44.1 °F 97% 29.96 in 3.0 mi ESE 13.8 mph 20.7 mph 0.12 in Rain , Thunderstorm Heavy Rain
3:11 AM 45.0 °F 38.9 °F 45.0 °F 100% 29.91 in 4.0 mi East 12.7 mph - 0.08 in Rain Rain
3:53 AM 45.0 °F 38.2 °F 45.0 °F 100% 29.90 in 6.0 mi ESE 15.0 mph 25.3 mph 0.16 in Rain Light Rain
4:07 AM 46.0 °F 39.6 °F 45.0 °F 96% 29.87 in 7.0 mi SE 15.0 mph 24.2 mph 0.01 in Rain Light Rain
4:53 AM 46.0 °F 39.0 °F 45.0 °F 96% 29.78 in 4.0 mi East 17.3 mph 26.5 mph 0.20 in Rain Heavy Rain
5:00 AM 46.0 °F 39.3 °F 45.0 °F 96% 29.76 in 6.0 mi ESE 16.1 mph 26.5 mph 0.03 in Rain Light Rain
5:53 AM 48.0 °F - 46.0 °F 93% 29.83 in 10.0 mi SE 13.8 mph 23.0 mph 0.03 in   Overcast
6:53 AM 48.0 °F - 46.0 °F 93% 29.78 in 3.0 mi SE 15.0 mph - N/A   Overcast
7:53 AM 48.0 °F - 46.9 °F 96% 29.73 in 7.0 mi SE 10.4 mph 20.7 mph N/A   Overcast
8:53 AM 48.9 °F - 48.0 °F 97% 29.70 in 3.0 mi SE 13.8 mph 21.9 mph N/A   Overcast
9:01 AM 48.9 °F - 48.0 °F 97% 29.68 in 2.5 mi SE 12.7 mph - N/A   Overcast
9:10 AM 48.9 °F - 48.0 °F 97% 29.68 in 3.0 mi SSE 11.5 mph - N/A   Overcast
9:27 AM 48.9 °F - 48.0 °F 97% 29.67 in 2.5 mi SSE 11.5 mph - 0.00 in Rain Light Rain
9:34 AM 48.9 °F - 48.0 °F 97% 29.67 in 3.0 mi SSE 11.5 mph 25.3 mph 0.00 in Rain Light Rain
9:44 AM 48.9 °F - 48.0 °F 97% 29.67 in 2.0 mi SSE 12.7 mph 21.9 mph 0.01 in Rain Light Rain
9:53 AM 48.9 °F - 48.0 °F 97% 29.68 in 2.5 mi SSE 12.7 mph - 0.01 in Rain Light Rain
10:27 AM 50.0 °F - 48.9 °F 96% 29.64 in 4.0 mi SSE 10.4 mph 20.7 mph 0.02 in Rain Light Rain
10:53 AM 50.0 °F - 48.9 °F 96% 29.64 in 4.0 mi SSE 9.2 mph - 0.02 in   Overcast
11:32 AM 50.0 °F - 48.9 °F 96% 29.61 in 1.8 mi South 9.2 mph - 0.01 in Rain Light Rain
11:49 AM 50.0 °F - 50.0 °F 100% 29.61 in 2.0 mi South 6.9 mph - 0.03 in Rain Light Rain
11:53 AM 50.0 °F - 50.0 °F 100% 29.62 in 2.5 mi South 8.1 mph - 0.03 in Rain Light Rain
12:28 PM 51.1 °F - 48.9 °F 92% 29.58 in 3.0 mi South 5.8 mph - 0.09 in Rain Rain
12:37 PM 51.1 °F - 50.0 °F 96% 29.56 in 5.0 mi South 3.5 mph - 0.11 in Rain Light Rain
12:53 PM 51.1 °F - 50.0 °F 96% 29.59 in 9.0 mi SW 5.8 mph - 0.11 in Rain Light Rain
1:27 PM 51.1 °F - 51.1 °F 100% 29.57 in 2.5 mi West 8.1 mph - 0.03 in Rain Light Rain
1:46 PM 51.1 °F - 50.0 °F 96% 29.57 in 3.0 mi West 9.2 mph - 0.04 in Rain Light Rain
1:53 PM 51.1 °F - 50.0 °F 96% 29.58 in 5.0 mi West 9.2 mph - 0.05 in Rain Light Rain
2:04 PM 51.1 °F - 50.0 °F 96% 29.56 in 7.0 mi West 8.1 mph - 0.00 in Rain Light Rain
2:17 PM 51.1 °F - 50.0 °F 96% 29.57 in 5.0 mi West 10.4 mph - 0.00 in   Overcast
2:32 PM 50.0 °F - 48.9 °F 96% 29.56 in 2.0 mi West 16.1 mph - 0.02 in Rain Rain
2:53 PM 50.0 °F - 48.9 °F 96% 29.60 in 2.5 mi WNW 17.3 mph - 0.04 in Rain Light Rain
3:02 PM 50.0 °F - 48.9 °F 96% 29.58 in 6.0 mi WNW 20.7 mph 26.5 mph 0.01 in Rain Light Rain
3:06 PM 50.0 °F - 48.9 °F 96% 29.58 in 6.0 mi WNW 19.6 mph - 0.01 in Rain Light Rain
3:13 PM 50.0 °F - 48.9 °F 96% 29.58 in 3.0 mi WNW 21.9 mph 28.8 mph 0.01 in Rain Light Rain
3:25 PM 50.0 °F - 48.0 °F 93% 29.59 in 4.0 mi WNW 19.6 mph 27.6 mph 0.01 in Rain Light Rain
3:36 PM 48.9 °F - 48.0 °F 97% 29.60 in 6.0 mi WNW 17.3 mph 29.9 mph 0.01 in Rain Light Rain
3:43 PM 48.9 °F - 46.9 °F 93% 29.60 in 9.0 mi WNW 19.6 mph 26.5 mph 0.01 in   Overcast
3:53 PM 48.9 °F - 46.9 °F 93% 29.62 in 10.0 mi WNW 18.4 mph 27.6 mph 0.01 in Rain Light Rain
4:21 PM 48.9 °F - 46.9 °F 93% 29.62 in 10.0 mi WNW 17.3 mph 26.5 mph 0.01 in Rain Light Rain
4:32 PM 48.9 °F - 46.9 °F 93% 29.63 in 10.0 mi WNW 18.4 mph - 0.01 in Rain Light Rain
4:53 PM 48.0 °F - 46.0 °F 93% 29.66 in 10.0 mi WNW 20.7 mph - 0.02 in Rain Light Rain
5:51 PM 48.2 °F - 44.6 °F 87% 29.67 in 10.0 mi West 12.7 mph - 0.02 in Rain Light Rain
5:53 PM 48.0 °F - 46.0 °F 93% 29.69 in 10.0 mi West 12.7 mph - 0.02 in Rain Light Rain
6:42 PM 48.9 °F - 46.0 °F 90% 29.69 in 10.0 mi West 16.1 mph - 0.00 in Rain Light Rain
6:53 PM 48.9 °F - 46.0 °F 90% 29.71 in 10.0 mi West 13.8 mph - 0.00 in Rain Light Rain
7:53 PM 48.9 °F - 46.0 °F 90% 29.72 in 10.0 mi West 13.8 mph - 0.00 in   Overcast
8:53 PM 48.9 °F - 45.0 °F 86% 29.73 in 10.0 mi WSW 10.4 mph - N/A   Scattered Clouds
9:53 PM 48.0 °F - 45.0 °F 89% 29.73 in 10.0 mi SW 11.5 mph - N/A   Scattered Clouds
10:53 PM 48.9 °F - 45.0 °F 86% 29.73 in 10.0 mi WSW 15.0 mph - N/A   Mostly Cloudy
11:53 PM 48.0 °F - 43.0 °F 83% 29.74 in 10.0 mi WSW 15.0 mph - N/A   Clear